Toledo, OH

4:40 AM EDT on June 20, 2018 (GMT -0400)
Toledo Express

Weather History for KTOL - December, 1957

Change the Weather History Date:

Friday, December 20, 1957

  Actual Average Record
Temperature  
Mean Temperature 52 °F 28 °F  
Max Temperature 57 °F 35 °F 62 °F (1895)
Min Temperature 46 °F 22 °F -7 °F (1963)
Degree Days  
Heating Degree Days 14 37  
Month to date heating degree days 675  
Since 1 July heating degree days 1908  
Cooling Degree Days 0 0  
Month to date cooling degree days 0  
Year to date cooling degree days 793  
Growing Degree Days 2 (Base 50)    
Moisture  
Dew Point 47 °F    
Average Humidity 80    
Maximum Humidity 93    
Minimum Humidity 60    
Precipitation  
Precipitation 0.00 in 0.08 in 0.87 in (2012)
Month to date precipitation 1.75  
Year to date precipitation 33.31  
Snow  
Snow 0.00 in 0.30 in - ()
Month to date snowfall 4.3  
Since 1 July snowfall 6.4  
Snow Depth -    
Sea Level Pressure  
Sea Level Pressure 29.46 in    
Wind  
Wind Speed 17 mph (SSW)    
Max Wind Speed 23 mph    
Max Gust Speed -    
Visibility 12 miles    
Events Rain    
T = Trace of Precipitation, MM = Missing Value Source: NWS Daily Summary

Daily Weather History Graph

Daily Weather History Graph

Search for Another Location

Airport or City:

Astronomy

Dec. 20, 1957 Rise Set
Actual Time 7:58 AM EST 5:07 PM EST
Civil Twilight 7:26 AM EST 5:39 PM EST
Nautical Twilight 6:51 AM EST 6:14 PM EST
Astronomical Twilight 6:17 AM EST 6:48 PM EST
Moon 7:08 AM EST 5:00 PM EST
Length of Visible Light 10h 12m
Length of Day
9h 09m
Waning Crescent, 0% of the Moon is Illuminated
Dec 20
Waning Crescent
Dec 21
New
Dec 28
First Quarter
Jan 5
Full
Jan 12
Last Quarter

Hourly Weather History & Observations

Time (EST) Temp. Windchill Dew Point Humidity Pressure Visibility Wind Dir Wind Speed Gust Speed Precip Events Conditions
12:00 AM 53.1 °F - 51.1 °F 93% 29.67 in 6.0 mi SE 12.7 mph - 0.01 in Rain Light Rain
5:00 AM 55.0 °F - 52.0 °F 89% 29.48 in 10.0 mi South 18.4 mph - N/A   Unknown
6:00 AM 55.0 °F - 51.1 °F 86% 29.46 in 15.0 mi South 20.7 mph - N/A   Unknown
7:00 AM 55.0 °F - 51.1 °F 86% 29.45 in 15.0 mi South 20.7 mph - N/A   Unknown
8:00 AM 55.9 °F - 51.1 °F 84% 29.46 in 15.0 mi South 19.6 mph - N/A   Unknown
9:00 AM 55.0 °F - 50.0 °F 83% 29.46 in 15.0 mi South 23.0 mph - N/A   Unknown
10:00 AM 55.0 °F - 51.1 °F 86% 29.46 in 15.0 mi South 17.3 mph - N/A   Unknown
11:00 AM 55.9 °F - 51.1 °F 84% 29.46 in 15.0 mi South 16.1 mph - N/A   Unknown
12:00 PM 57.0 °F - 51.1 °F 81% 29.44 in 15.0 mi South 17.3 mph - N/A   Unknown
1:00 PM 57.0 °F - 51.1 °F 81% 29.41 in 15.0 mi SW 17.3 mph - N/A   Unknown
2:00 PM 57.9 °F - 48.9 °F 72% 29.39 in 15.0 mi SW 18.4 mph - N/A   Unknown
3:00 PM 57.9 °F - 44.1 °F 60% 29.37 in 10.0 mi SW 16.1 mph - N/A   Unknown
4:00 PM 57.0 °F - 45.0 °F 64% 29.37 in 10.0 mi SW 16.1 mph - N/A   Unknown
5:00 PM 54.0 °F - 44.1 °F 69% 29.39 in 6.0 mi SW 13.8 mph - N/A   Unknown
6:00 PM 52.0 °F - 43.0 °F 71% 29.42 in 8.0 mi SW 11.5 mph - N/A   Unknown
7:00 PM 48.9 °F - 41.0 °F 74% 29.46 in 10.0 mi SW 11.5 mph - N/A   Unknown
8:00 PM 48.0 °F - 41.0 °F 77% 29.48 in 10.0 mi SW 10.4 mph - N/A   Unknown
9:00 PM 48.0 °F - 43.0 °F 83% 29.50 in 10.0 mi SW 17.3 mph - N/A   Unknown
10:00 PM 46.9 °F - 43.0 °F 86% 29.52 in 10.0 mi SW 16.1 mph - N/A Rain Light Rain Showers
11:00 PM 46.0 °F 39.3 °F 43.0 °F 89% 29.54 in 8.0 mi WSW 16.1 mph - N/A   Unknown